Van Nuys, CA

8:00 AM PDT on August 18, 2017 (GMT -0700)
Van Nuys

Weather History for KVNY - April, 2014

Change the Weather History Date:

Sunday, April 20, 2014

  Actual Average Record
Temperature  
Mean Temperature 68 °F -  
Max Temperature 82 °F 73 °F 98 °F (2009)
Min Temperature 55 °F 49 °F 44 °F (2001)
Cooling Degree Days 4    
Growing Degree Days 18 (Base 50)    
Moisture  
Dew Point 51 °F    
Average Humidity 58    
Maximum Humidity 81    
Minimum Humidity 31    
Precipitation  
Precipitation 0.00 in - - ()
Sea Level Pressure  
Sea Level Pressure 30.01 in    
Wind  
Wind Speed 1 mph (South)    
Max Wind Speed 12 mph    
Max Gust Speed -    
Visibility 10 miles    
Events      
Averages and records for this station are not official NWS values.
T = Trace of Precipitation, MM = Missing Value Source: NWS Daily Summary

Daily Weather History Graph

Daily Weather History Graph

Search for Another Location

Airport or City:

Trip Planner

Search our weather history database for the weather conditions in past years. The results will help you decide how hot, cold, wet, or windy it might be!

Date:

Astronomy

Apr. 20, 2014 Rise Set
Actual Time 6:16 AM PDT 7:29 PM PDT
Civil Twilight 5:50 AM PDT 7:55 PM PDT
Nautical Twilight 5:19 AM PDT 8:26 PM PDT
Astronomical Twilight 4:47 AM PDT 8:59 PM PDT
Moon 12:08 AM PDT (4/20) 10:47 AM PDT (4/20)
Length of Visible Light 14h 05m
Length of Day
13h 12m
Waning Gibbous, 67% of the Moon is Illuminated
Apr 20
Waning Gibbous
Apr 22
Last Quarter
Apr 28
New
May 6
First Quarter
May 14
Full

Hourly Weather History & Observations

Time (PDT) Temp. Dew Point Humidity Pressure Visibility Wind Dir Wind Speed Gust Speed Precip Events Conditions
12:51 AM 59.0 °F 51.1 °F 75% 30.03 in 10.0 mi Calm Calm - N/A   Clear
1:51 AM 59.0 °F 51.1 °F 75% 30.02 in 10.0 mi Calm Calm - N/A   Clear
2:51 AM 59.0 °F 51.1 °F 75% 30.01 in 10.0 mi Calm Calm - N/A   Clear
3:51 AM 57.9 °F 51.1 °F 78% 30.01 in 10.0 mi Calm Calm - N/A   Clear
4:51 AM 57.9 °F 51.1 °F 78% 30.00 in 10.0 mi Calm Calm - N/A   Clear
5:51 AM 55.9 °F 50.0 °F 80% 30.01 in 10.0 mi Calm Calm - N/A   Clear
6:51 AM 57.0 °F 51.1 °F 81% 30.03 in 10.0 mi Calm Calm - N/A   Clear
7:51 AM 57.9 °F 51.1 °F 78% 30.04 in 8.0 mi Calm Calm - N/A   Clear
8:51 AM 62.1 °F 52.0 °F 70% 30.04 in 8.0 mi Calm Calm - N/A   Clear
9:51 AM 68.0 °F 51.1 °F 55% 30.04 in 10.0 mi Calm Calm - N/A   Clear
10:51 AM 72.0 °F 50.0 °F 46% 30.04 in 10.0 mi Calm Calm - N/A   Clear
12:51 PM 79.0 °F 46.9 °F 32% 30.01 in 10.0 mi SW 3.5 mph - N/A   Clear
2:51 PM 82.0 °F 52.0 °F 35% 29.97 in 10.0 mi South 8.1 mph - N/A   Clear
3:51 PM 82.9 °F 51.1 °F 33% 29.96 in 10.0 mi ESE 11.5 mph - N/A   Clear
4:51 PM 82.0 °F 48.9 °F 31% 29.96 in 10.0 mi SW 6.9 mph - N/A   Clear
5:51 PM 80.1 °F 52.0 °F 38% 29.97 in 10.0 mi East 8.1 mph - N/A   Clear
6:51 PM 79.0 °F 50.0 °F 36% 29.97 in 10.0 mi WNW 3.5 mph - N/A   Clear
8:51 PM 72.0 °F 50.0 °F 46% 30.00 in 10.0 mi West 3.5 mph - N/A   Clear
9:51 PM 70.0 °F 48.9 °F 47% 30.01 in 10.0 mi Calm Calm - N/A   Clear
10:51 PM 68.0 °F 48.9 °F 50% 30.01 in 10.0 mi Calm Calm - N/A   Clear
11:51 PM 64.0 °F 55.0 °F 73% 30.02 in 10.0 mi ESE 4.6 mph - N/A   Clear